SKYSAT-C3 (41774 NORAD) Tracking and Keplerian Element Data

This shows tracking and keplerian element data for the satellite.

Feedback or suggestion? Click here.




ElementValue
Catalog41774
NameSKYSAT-C3
Epoch Orbit12531
Epoch Day352.81221483
Epoch Year2018
RAAN61.332
Inclination97.4247
Eccentricity0.0001768
Argument of Perigee107.7874
Mean Anonmoly15.8489
Mean Motion15.23178278
Decay Rate2.39E-06
L11 41774U 16058E 18352.81221483 .00000239 00000-0 13054-4 0 9992
L22 41774 97.4247 61.3320 0001768 107.7874 15.8489 15.23178278125310

Live tracking and technical data element details for SKYSAT-C3 (NORAD 41774). SKYSAT-C3 can be tracked NOW for your location showing map with azimuth and elevation plus other details from your city location.

Track the satellite on the map from your city or location and see movement details for azimuth, elevation, latitude, longitude, range, height, and movement on the map or in text.







IsCatalogInMostPopularTable: catalog: 41774, numindb: 97
Update: records affected: 1



GetName: 41774 SKYSAT-C3

Hit Count: updated at: Wed, 19 Dec 2018 15:22:32 GMT